User: anonymous   Login
Location: Mason Neck State Park
(38.6428°N, 77.1981°W)
Time: 17:30:34
(UTC-04:00)
Language:

Cosmos 1400 Rocket - Orbit

View from above orbital plane
View from above orbital plane
View from above satellite
View from above satellite

Ground track
Ground track

The orbit data is extracted from the following two-line orbital elements,

1 13403U 82079B   16144.94751673 +.00000490 +00000-0 +31369-4 0  9994
2 13403 081.1697 355.0425 0035109 120.0615 240.4098 15.06201910837901
Epoch (UTC): 23 May 2016 22:44:25
Eccentricity: 0.0035109
inclination: 81.1697°
perigee height: 523 km
apogee height: 572 km
right ascension of ascending node: 355.0425°
argument of perigee: 120.0615°
revolutions per day: 15.06201910
mean anomaly at epoch: 240.4098°
orbit number at epoch: 83790

The dashed part of the orbit path shows where the satellite is in the earth's shadow,  

DLR